When you browse on this site, cookies collect data to enhance your experience and personalize the content and advertising you see.
Visit our Privacy Policy to learn more. By continuing to use the site, you agree to this use of cookies and data.
  • In Österreich
  • Länderverzeichnis
  • Für 7 Tage
  • Wassertemperatur
  • Satellitenkarten
  • Wetterkarte
  • News
  • Widgets
  • user-avatar
    Anmelden

    Stündliche Wetter Wavre

    Heute, 24 April, Mittwoch

    Zeit Temperatur Niederschläge Wind Luftdruck Luftfeuchtigkeit
    00:00 +14°C° 0 mm 4 m/S 741 mmHg 82%
    01:00 +14°C° 0 mm 3 m/S 742 mmHg 83%
    02:00 +14°C° 0 mm 3 m/S 742 mmHg 85%
    03:00 +13°C° 0 mm 3 m/S 742 mmHg 87%
    04:00 +14°C° 0 mm 4 m/S 742 mmHg 84%
    05:00 +14°C° 0 mm 5 m/S 742 mmHg 81%
    06:00 +15°C° 0 mm 6 m/S 742 mmHg 76%
    07:00 +16°C° 0 mm 6 m/S 742 mmHg 71%
    08:00 +18°C° 0 mm 7 m/S 743 mmHg 65%
    09:00 +20°C° 0 mm 8 m/S 743 mmHg 60%
    10:00 +21°C° 0 mm 8 m/S 743 mmHg 57%
    11:00 +21°C° 0 mm 8 m/S 743 mmHg 54%
    12:00 +22°C° 0 mm 8 m/S 743 mmHg 51%
    13:00 +22°C° 0 mm 8 m/S 743 mmHg 53%
    14:00 +21°C° 0 mm 8 m/S 744 mmHg 54%
    15:00 +21°C° 0 mm 7 m/S 744 mmHg 56%
    16:00 +18°C° 0.6 mm 7 m/S 744 mmHg 65%
    17:00 +16°C° 0.6 mm 7 m/S 745 mmHg 73%
    18:00 +14°C° 0.6 mm 7 m/S 745 mmHg 82%
    19:00 +13°C° 0.6 mm 6 m/S 746 mmHg 83%
    20:00 +13°C° 0.6 mm 5 m/S 746 mmHg 83%
    21:00 +12°C° 0.6 mm 5 m/S 747 mmHg 83%
    22:00 +10°C° 0 mm 5 m/S 747 mmHg 83%
    23:00 +10°C° 0 mm 5 m/S 747 mmHg 83%

    Morgen, 25 April, Donnerstag

    Zeit Temperatur Niederschläge Wind Luftdruck Luftfeuchtigkeit
    00:00 +10°C° 0 mm 6 m/S 746 mmHg 83%
    01:00 +9°C° 0 mm 6 m/S 746 mmHg 80%
    02:00 +9°C° 0 mm 6 m/S 746 mmHg 77%
    03:00 +9°C° 0 mm 6 m/S 746 mmHg 73%
    04:00 +9°C° 0 mm 6 m/S 747 mmHg 73%
    05:00 +10°C° 0 mm 6 m/S 747 mmHg 73%
    06:00 +10°C° 0 mm 6 m/S 747 mmHg 73%
    07:00 +11°C° 0 mm 7 m/S 747 mmHg 72%
    08:00 +11°C° 0 mm 8 m/S 748 mmHg 71%
    09:00 +12°C° 0 mm 9 m/S 748 mmHg 70%
    10:00 +13°C° 0.1 mm 9 m/S 748 mmHg 69%
    11:00 +15°C° 0.1 mm 9 m/S 748 mmHg 68%
    12:00 +16°C° 0.1 mm 9 m/S 748 mmHg 66%
    13:00 +15°C° 0.3 mm 8 m/S 749 mmHg 70%
    14:00 +15°C° 0.3 mm 7 m/S 749 mmHg 74%
    15:00 +14°C° 0.3 mm 5 m/S 749 mmHg 78%
    16:00 +13°C° 0.6 mm 5 m/S 749 mmHg 81%
    17:00 +12°C° 0.6 mm 4 m/S 750 mmHg 84%
    18:00 +12°C° 0.6 mm 3 m/S 750 mmHg 87%
    19:00 +11°C° 0 mm 3 m/S 750 mmHg 88%
    20:00 +10°C° 0 mm 3 m/S 751 mmHg 89%
    21:00 +10°C° 0 mm 3 m/S 751 mmHg 90%
    22:00 +9°C° 0 mm 3 m/S 751 mmHg 90%
    23:00 +9°C° 0 mm 3 m/S 751 mmHg 90%

    übermorgen, 26 April, Freitag

    Zeit Temperatur Niederschläge Wind Luftdruck Luftfeuchtigkeit
    00:00 +9°C° 0 mm 3 m/S 752 mmHg 90%
    01:00 +8°C° 0 mm 3 m/S 752 mmHg 90%
    02:00 +8°C° 0 mm 3 m/S 752 mmHg 90%
    03:00 +8°C° 0 mm 3 m/S 752 mmHg 89%
    04:00 +8°C° 0 mm 3 m/S 753 mmHg 89%
    05:00 +8°C° 0 mm 3 m/S 753 mmHg 88%
    06:00 +7°C° 0 mm 4 m/S 753 mmHg 87%
    07:00 +10°C° 0 mm 4 m/S 753 mmHg 82%
    08:00 +11°C° 0 mm 4 m/S 754 mmHg 77%
    09:00 +12°C° 0 mm 4 m/S 754 mmHg 72%
    10:00 +13°C° 0 mm 5 m/S 754 mmHg 69%
    11:00 +14°C° 0 mm 5 m/S 754 mmHg 65%
    12:00 +15°C° 0 mm 5 m/S 754 mmHg 61%
    13:00 +15°C° 0.2 mm 6 m/S 754 mmHg 60%
    14:00 +15°C° 0.2 mm 6 m/S 753 mmHg 60%
    15:00 +16°C° 0.2 mm 6 m/S 753 mmHg 59%
    16:00 +15°C° 0.1 mm 5 m/S 753 mmHg 63%
    17:00 +14°C° 0.1 mm 4 m/S 754 mmHg 67%
    18:00 +13°C° 0.1 mm 4 m/S 754 mmHg 72%
    19:00 +12°C° 0 mm 3 m/S 754 mmHg 77%
    20:00 +11°C° 0 mm 3 m/S 755 mmHg 82%
    21:00 +9°C° 0 mm 3 m/S 755 mmHg 88%
    22:00 +9°C° 0 mm 3 m/S 755 mmHg 86%
    23:00 +9°C° 0 mm 3 m/S 755 mmHg 85%

    27 April, Samstag

    Zeit Temperatur Niederschläge Wind Luftdruck Luftfeuchtigkeit
    00:00 +8°C° 0 mm 3 m/S 755 mmHg 84%
    01:00 +7°C° 0 mm 4 m/S 755 mmHg 83%
    02:00 +7°C° 0 mm 4 m/S 754 mmHg 83%
    03:00 +7°C° 0 mm 4 m/S 754 mmHg 82%
    04:00 +7°C° 0.3 mm 5 m/S 753 mmHg 83%
    05:00 +7°C° 0.3 mm 6 m/S 753 mmHg 85%
    06:00 +6°C° 0.3 mm 7 m/S 752 mmHg 87%
    07:00 +7°C° 0.5 mm 8 m/S 751 mmHg 83%
    08:00 +9°C° 0.5 mm 8 m/S 751 mmHg 80%
    09:00 +10°C° 0.5 mm 9 m/S 750 mmHg 77%
    10:00 +10°C° 0.4 mm 9 m/S 750 mmHg 76%
    11:00 +9°C° 0.4 mm 10 m/S 749 mmHg 74%
    12:00 +11°C° 0.4 mm 10 m/S 749 mmHg 73%
    13:00 +10°C° 0.4 mm 9 m/S 749 mmHg 76%
    14:00 +10°C° 0.4 mm 9 m/S 748 mmHg 78%
    15:00 +9°C° 0.4 mm 8 m/S 748 mmHg 81%
    16:00 +9°C° 0.4 mm 7 m/S 749 mmHg 82%
    17:00 +9°C° 0.4 mm 5 m/S 749 mmHg 83%
    18:00 +10°C° 0.4 mm 4 m/S 749 mmHg 84%
    19:00 +10°C° 1.5 mm 4 m/S 750 mmHg 86%
    20:00 +8°C° 1.5 mm 5 m/S 751 mmHg 89%
    21:00 +8°C° 1.5 mm 5 m/S 752 mmHg 91%
    22:00 +7°C° 0.5 mm 5 m/S 753 mmHg 92%
    23:00 +7°C° 0.5 mm 5 m/S 754 mmHg 93%

    28 April, Sonntag

    Zeit Temperatur Niederschläge Wind Luftdruck Luftfeuchtigkeit
    00:00 +7°C° 0.5 mm 5 m/S 754 mmHg 94%
    01:00 +7°C° 0.1 mm 5 m/S 755 mmHg 94%
    02:00 +7°C° 0.1 mm 5 m/S 756 mmHg 94%
    03:00 +7°C° 0.1 mm 6 m/S 756 mmHg 94%
    04:00 +7°C° 0.1 mm 5 m/S 757 mmHg 93%
    05:00 +7°C° 0.1 mm 5 m/S 758 mmHg 92%
    06:00 +7°C° 0.1 mm 5 m/S 758 mmHg 91%
    07:00 +8°C° 0.1 mm 5 m/S 759 mmHg 87%
    08:00 +9°C° 0.1 mm 5 m/S 759 mmHg 83%
    09:00 +11°C° 0.1 mm 4 m/S 760 mmHg 79%
    10:00 +10°C° 0.2 mm 5 m/S 760 mmHg 79%
    11:00 +10°C° 0.2 mm 5 m/S 760 mmHg 79%
    12:00 +10°C° 0.2 mm 6 m/S 760 mmHg 79%
    13:00 +10°C° 0.1 mm 6 m/S 761 mmHg 76%
    14:00 +10°C° 0.1 mm 6 m/S 761 mmHg 73%
    15:00 +10°C° 0.1 mm 6 m/S 761 mmHg 70%
    16:00 +10°C° 0 mm 5 m/S 761 mmHg 73%
    17:00 +9°C° 0 mm 5 m/S 761 mmHg 76%
    18:00 +8°C° 0 mm 4 m/S 761 mmHg 80%
    19:00 +8°C° 0 mm 3 m/S 762 mmHg 82%
    20:00 +8°C° 0 mm 3 m/S 762 mmHg 84%
    21:00 +7°C° 0 mm 2 m/S 763 mmHg 86%
    22:00 +7°C° 0 mm 2 m/S 763 mmHg 86%
    23:00 +7°C° 0 mm 2 m/S 763 mmHg 86%

    29 April, Montag

    Zeit Temperatur Niederschläge Wind Luftdruck Luftfeuchtigkeit
    00:00 +7°C° 0 mm 2 m/S 763 mmHg 86%
    01:00 +8°C° 0 mm 1 m/S 762 mmHg 87%
    02:00 +7°C° 0 mm 1 m/S 762 mmHg 89%
    03:00 +7°C° 0 mm 1 m/S 762 mmHg 90%
    04:00 +7°C° 0 mm 1 m/S 762 mmHg 89%
    05:00 +8°C° 0 mm 1 m/S 762 mmHg 88%
    06:00 +7°C° 0 mm 0 m/S 762 mmHg 87%
    07:00 +10°C° 0 mm 1 m/S 762 mmHg 81%
    08:00 +11°C° 0 mm 1 m/S 762 mmHg 76%
    09:00 +13°C° 0 mm 1 m/S 762 mmHg 71%
    10:00 +14°C° 0 mm 1 m/S 761 mmHg 68%
    11:00 +14°C° 0 mm 1 m/S 761 mmHg 66%
    12:00 +15°C° 0 mm 1 m/S 761 mmHg 64%
    13:00 +15°C° 0 mm 2 m/S 760 mmHg 63%
    14:00 +15°C° 0 mm 2 m/S 760 mmHg 62%
    15:00 +16°C° 0 mm 2 m/S 760 mmHg 61%
    16:00 +15°C° 0 mm 2 m/S 760 mmHg 65%
    17:00 +15°C° 0 mm 2 m/S 759 mmHg 69%
    18:00 +14°C° 0 mm 2 m/S 759 mmHg 74%
    19:00 +13°C° 0 mm 2 m/S 759 mmHg 77%
    20:00 +10°C° 0 mm 2 m/S 760 mmHg 80%
    21:00 +9°C° 0 mm 2 m/S 760 mmHg 83%
    22:00 +9°C° 0 mm 2 m/S 760 mmHg 85%
    23:00 +8°C° 0 mm 2 m/S 760 mmHg 86%
    Mehr zeigen